This demonstration page uses our WeatherBlox Daily Observations layout. Learn more.

Left ArrowRight Arrow

Hourly Observations for July 30, 2021

Temp ( °F °C ) Dew Point ( °F °C ) Humidity (%) Winds ( mph kmh ) Pressure ( in mb ) Visibility ( mi km ) Precip ( " mm )
12:53 am 00:53 Cloudy 77 25 75 23.9 94 94 WNW 8 13 29.92 1013 10 16 N/A
1:53 am 01:53 Mostly Cloudy 76 24.4 73 22.8 91 91 NW 6 9 29.93 1014 10 16 N/A
2:53 am 02:53 Clear 73 22.8 71 21.7 94 94 NNW 5 7 29.95 1014 10 16 N/A
3:53 am 03:53 Mostly Cloudy 73 22.8 71 21.7 94 94 NNW 5 7 29.96 1015 10 16 N/A
4:53 am 04:53 Mostly Cloudy 73 22.8 70 21.1 90 90 NNW 5 7 29.97 1015 10 16 N/A
5:11 am 05:11 Cloudy 73 22.8 70 21.1 90 90 NW 7 11 29.97 1015 10 16 N/A
5:53 am 05:53 Cloudy 72 22.2 69 20.6 91 91 NNW 7 11 29.98 1015 10 16 N/A
6:53 am 06:53 Mostly Cloudy 71 21.7 69 20.6 94 94 NNW 5 7 29.99 1016 8 13 N/A
7:53 am 07:53 Cloudy 72 22.2 69 20.6 91 91 N 6 9 30.02 1017 7 11 N/A
8:17 am 08:17 Partly Cloudy 72 22.2 69 20.6 91 91 N 6 9 30.02 1017 7 11 N/A
8:53 am 08:53 Mostly Sunny 74 23.3 70 21.1 88 88 N 10 17 30.03 1017 8 13 N/A
9:53 am 09:53 Partly Cloudy 76 24.4 70 21.1 82 82 NE 9 15 30.03 1017 9 14 N/A
10:53 am 10:53 Partly Cloudy 78 25.6 68 20 71 71 NE 7 11 30.04 1017 10 16 N/A
11:02 am 11:02 Mostly Cloudy 78 25.6 69 20.6 74 74 NE 5 7 30.03 1017 10 16 N/A
11:53 am 11:53 Mostly Cloudy 78 25.6 69 20.6 74 74 NNW 8 13 30.06 1018 10 16 N/A
12:05 pm 12:05 Partly Cloudy 80 26.7 69 20.6 69 69 NNW 7 11 30.04 1017 10 16 N/A
12:53 pm 12:53 Partly Cloudy 80 26.7 68 20 67 67 N 9 15 30.05 1018 10 16 N/A
1:53 pm 13:53 Mostly Sunny 83 28.3 66 18.9 57 57 NNW 9 15 30.03 1017 9 14 N/A
2:53 pm 14:53 Mostly Sunny 83 28.3 65 18.3 55 55 VRB 7 11 30.04 1017 8 13 N/A
3:53 pm 15:53 Sunny 83 28.3 63 17.2 51 51 NNW 9 15 30.03 1017 7 11 N/A
4:53 pm 16:53 Hazy 83 28.3 61 16.1 48 48 NNW 8 13 30.03 1017 6 10 N/A
5:53 pm 17:53 Sunny 82 27.8 61 16.1 49 49 NNW 5 7 30.04 1017 8 13 N/A
6:53 pm 18:53 Sunny 80 26.7 61 16.1 52 52 NNW 7 11 30.04 1017 10 16 N/A
7:53 pm 19:53 Sunny 77 25 60 15.6 56 56 NNE 8 13 30.03 1017 10 16 N/A
8:53 pm 20:53 Clear 72 22.2 63 17.2 73 73 NNE 3 6 30.03 1017 10 16 N/A
9:53 pm 21:53 Clear 71 21.7 63 17.2 76 76 N 3 6 30.05 1018 10 16 N/A
10:53 pm 22:53 Clear 70 21.1 62 16.7 76 76 NNW 5 7 30.06 1018 10 16 N/A
11:53 pm 23:53 Clear 68 20 64 17.8 87 87 NNW 5 7 30.07 1018 10 16 N/A

Powered by AerisWeather